Charleston Weather Center

Moon Phase Calendar



Online Cameras

 


      

Current Conditions in Charleston
7/23/2021 10:03:06 PM

80°F
Feels Like 80
Clouds
Humidity
85%
Pressure
30.09"
Wind
6 mph (E)
Dew Point
75°F
UV Index
0/10 (Low)
Visibility
6 mi

Hourly Forecast

Date & Time Fri, Jul 23
10:00 PM
Fri, Jul 23
11:00 PM
Sat, Jul 24
12:00 AM
Sat, Jul 24
1:00 AM
Sat, Jul 24
2:00 AM
Sat, Jul 24
3:00 AM
Sat, Jul 24
4:00 AM
Sat, Jul 24
5:00 AM
Sat, Jul 24
6:00 AM
Sat, Jul 24
7:00 AM
Sat, Jul 24
8:00 AM
Sat, Jul 24
9:00 AM
Sat, Jul 24
10:00 AM
Sat, Jul 24
11:00 AM
Sat, Jul 24
12:00 PM
Sat, Jul 24
1:00 PM
Sat, Jul 24
2:00 PM
Sat, Jul 24
3:00 PM
Sat, Jul 24
4:00 PM
Sat, Jul 24
5:00 PM
Sat, Jul 24
6:00 PM
Sat, Jul 24
7:00 PM
Sat, Jul 24
8:00 PM
Sat, Jul 24
9:00 PM
Sat, Jul 24
10:00 PM
Sat, Jul 24
11:00 PM
Sun, Jul 25
12:00 AM
Sun, Jul 25
1:00 AM
Sun, Jul 25
2:00 AM
Sun, Jul 25
3:00 AM
Sun, Jul 25
4:00 AM
Sun, Jul 25
5:00 AM
Sun, Jul 25
6:00 AM
Sun, Jul 25
7:00 AM
Sun, Jul 25
8:00 AM
Sun, Jul 25
9:00 AM
Sun, Jul 25
10:00 AM
Sun, Jul 25
11:00 AM
Sun, Jul 25
12:00 PM
Sun, Jul 25
1:00 PM
Sun, Jul 25
2:00 PM
Sun, Jul 25
3:00 PM
Sun, Jul 25
4:00 PM
Sun, Jul 25
5:00 PM
Sun, Jul 25
6:00 PM
Sun, Jul 25
7:00 PM
Sun, Jul 25
8:00 PM
Sun, Jul 25
9:00 PM
Condition
Clouds

Clouds

Clouds

Clouds

Clear

Clear

Clear

Clear

Clear

Clear

Clear

Clear

Clear

Clear

Clear

Clear

Clear

Clear

Clear

Clear

Clear

Clear

Clear

Clear

Clouds

Clouds

Clouds

Clouds

Clouds

Clouds

Clouds

Clouds

Clouds

Clouds

Clouds

Clouds

Clouds

Clouds

Clouds

Clouds

Clouds

Clouds

Clouds

Clouds

Clouds

Clouds

Clouds

Clouds
Temperature 80°F79°F79°F78°F77°F76°F76°F75°F75°F75°F78°F81°F83°F84°F86°F86°F86°F86°F85°F84°F83°F81°F79°F77°F77°F76°F76°F76°F76°F75°F75°F75°F74°F75°F78°F81°F83°F85°F86°F86°F87°F87°F86°F85°F84°F82°F80°F78°F
Feels Like 80°F79°F79°F79°F78°F77°F76°F76°F76°F76°F78°F83°F84°F86°F87°F87°F87°F87°F87°F86°F84°F83°F79°F78°F77°F77°F77°F77°F76°F76°F76°F76°F75°F75°F79°F83°F85°F87°F88°F89°F90°F89°F89°F88°F87°F86°F83°F79°F
Cloudiness 40%32%24%16%8%0%0%0%0%0%0%0%0%0%0%0%0%0%6%6%6%9%7%3%25%26%21%20%25%39%54%48%39%32%29%22%18%17%16%20%31%48%58%66%57%55%54%60%
Visibility 6 mi6 mi6 mi6 mi6 mi6 mi6 mi6 mi6 mi6 mi6 mi6 mi6 mi6 mi6 mi6 mi6 mi6 mi6 mi6 mi6 mi6 mi6 mi6 mi6 mi6 mi6 mi6 mi6 mi6 mi6 mi6 mi6 mi6 mi6 mi6 mi6 mi6 mi6 mi6 mi6 mi6 mi6 mi6 mi6 mi6 mi6 mi6 mi
Precipitation 0%0%0%0%0%0%0%0%0%0%0%0%0%0%0%0%0%0%0%0%0%0%0%0%0%0%0%0%0%0%0%0%0%0%0%0%0%0%0%0%0%0%0%0%0%0%0%0%
Humidity 85%83%81%78%75%71%70%71%71%72%68%61%55%51%49%48%48%49%51%53%56%60%66%70%72%73%74%75%76%77%78%78%79%78%71%64%59%55%52%51%51%51%52%54%57%62%70%76%
Dew Point 75°F74°F73°F71°F69°F66°F65°F65°F65°F65°F66°F66°F65°F64°F64°F64°F64°F64°F64°F65°F65°F66°F67°F67°F67°F67°F67°F67°F67°F67°F68°F67°F67°F67°F68°F68°F67°F66°F66°F66°F66°F66°F66°F66°F67°F68°F69°F70°F
Pressure 30.09"30.09"30.09"30.06"30.06"30.03"30.03"30.03"30.03"30.06"30.09"30.09"30.09"30.09"30.09"30.09"30.09"30.06"30.06"30.03"30.06"30.06"30.06"30.06"30.09"30.09"30.06"30.06"30.03"30.03"30.03"30.03"30.03"30.03"30.06"30.06"30.06"30.06"30.06"30.06"30.03"30.03"30.03"30"30"30"30"30"
Wind Speed 10.7 mph9.8 mph9.1 mph8.5 mph8.5 mph8.9 mph8.6 mph8.2 mph7.8 mph7.8 mph8.7 mph10.6 mph10.8 mph11.3 mph11.7 mph13.1 mph13.4 mph13.4 mph12.9 mph12.2 mph11.8 mph10.3 mph9.4 mph7.9 mph8.1 mph7.7 mph7.6 mph7.2 mph6.5 mph6 mph5.6 mph5.5 mph4.6 mph4 mph4.5 mph5.4 mph6.2 mph7.3 mph8 mph8.6 mph9.2 mph9.5 mph9.5 mph9 mph8.3 mph8 mph7.2 mph7 mph
Wind
Direction
88°
E
90°
E
83°
E
80°
E
74°
ENE
73°
ENE
75°
ENE
75°
ENE
73°
ENE
69°
ENE
66°
ENE
67°
ENE
70°
ENE
74°
ENE
79°
E
84°
E
91°
E
92°
E
95°
E
95°
E
95°
E
97°
E
94°
E
97°
E
98°
E
101°
E
106°
ESE
111°
ESE
111°
ESE
113°
ESE
115°
ESE
115°
ESE
109°
ESE
88°
E
80°
E
90°
E
97°
E
103°
ESE
107°
ESE
109°
ESE
115°
ESE
118°
ESE
115°
ESE
115°
ESE
116°
ESE
116°
ESE
118°
ESE
122°
ESE

Daily Forecast

Date High Low Precip. Humidity
Today
Jul 23

Rain
90 °F
75 °F
26%
49%
Saturday
Jul 24

Clear
86 °F
75 °F
0%
48%
Sunday
Jul 25

Clouds
87 °F
74 °F
0%
51%
Monday
Jul 26

Clouds
89 °F
77 °F
16%
55%
Tuesday
Jul 27

Rain
90 °F
74 °F
91%
55%
Wednesday
Jul 28

Rain
90 °F
74 °F
96%
53%
Thursday
Jul 29

Clear
92 °F
76 °F
8%
49%
Friday
Jul 30

Rain
93 °F
76 °F
94%
51%
Saturday
Jul 31

Rain
86 °F
75 °F
91%
59%
Sunday
Aug 1

Clear
89 °F
77 °F
26%
53%
Monday
Aug 2

Rain
90 °F
77 °F
55%
56%
Tuesday
Aug 3

Rain
92 °F
79 °F
60%
52%
Wednesday
Aug 4

Rain
85 °F
80 °F
71%
67%
Thursday
Aug 5

Rain
87 °F
76 °F
100%
63%
Friday
Aug 6

Rain
82 °F
75 °F
80%
73%
Saturday
Aug 7

Rain
84 °F
76 °F
99%
76%

Temperature 8-14 Day Outlook



Precipitation 8-14 Day Outlook




Quick Links
Charleston News
Charleston Photos
Charleston Videos




About Us
Contact Us
Site Map
Search Site
Advertise With Us
   
Charleston.USCoast.info
THE CHARLESTON WEBSITE

Copyright 2021, Coastal Town
Privacy    |    Legal